Weather in Korotetskaya

Russia / Vologda Oblast     60°18′05″N   38°40′19″E
temp.,
°C
wind,
m/s
gust,
m/s
humid.,
%
clouds,
%
prec.,
mm/h
press.,
hPa
HPBL,
m
14 april, wed
wed1400:00+7s2410096 0.5 102063
03:00+6s2498100 0.7 101981
06:00+6sse3109986 0.0 1017195
09:00+11s3118311 0.0 1016334
12:00+13ssw4128072 0.0 1016569
15:00+15sw497759 0.3 1015942
18:00+7nw389599 0.5 1018399
21:00+5nnw389397 0.5 1021533
15 april, thu
thu1500:00+4n2890100 0.0 1022496
03:00+4n289275 0.0 1023416
06:00+2n399380 0.0 1025358
09:00+4nne477997 0.0 1026615
12:00+6nne5661100 0.0 10281124
15:00+7ne574882 0.0 10281340
18:00+6ne37535 0.0 1029985
21:00+2nne3107356 0.0 1031245
16 april, fri
fri1600:000ne310815 0.0 1032242
03:00−1ne29855 0.0 1033219
06:00−1ene28795 0.0 1033245
09:00+5ene35510 0.0 1033620
12:00+8ene35375 0.0 10331030
15:00+10ene34344 0.0 10321209
18:00+8ne25463 0.0 1032186
21:00+3ne23672 0.0 103451
17 april, sat
sat1700:00+1ne22743 0.0 103431
03:000ne22814 0.0 103532
06:00+1ne23835 0.0 103676
09:00+7ne24615 0.0 1035488
12:00+10ne23425 0.0 10351213
15:00+12nne23372 0.0 10341550
18:00+10nne24453 0.0 1033322
21:00+5nne24691 0.0 103466
18 april, sun
sun1800:00+3nne22760 0.0 103414
03:00+2nne22823 0.0 103514
06:00+2nne22845 0.0 103548
09:00+8ne235817 0.0 1035436
12:00+12nne23395 0.0 10341384
15:00+13nne23355 0.0 10331758
18:00+12nne24425 0.0 1033304
21:00+6ne22645 0.0 103416